When you browse on this site, cookies collect data to enhance your experience and personalize the content and advertising you see.
Visit our Privacy Policy to learn more. By continuing to use the site, you agree to this use of cookies and data.
  • In Romania
  • List of Countries
  • For 7 days
  • Water Temperature
  • Satellite Maps
  • Weather Map
  • Weather Widgets
  • user-avatar
    Login

    Hourly Weather Eremeyki

    Today, 21 March, Thursday

    Time Temperature Precipitation Wind Pressure Humidity
    00:00 -3°C° 0 mm 2 mps 750 mmHg 89%
    01:00 -2°C° 0 mm 2 mps 750 mmHg 88%
    02:00 -4°C° 0 mm 3 mps 749 mmHg 89%
    03:00 -4°C° 0.1 mm 3 mps 749 mmHg 89%
    04:00 -2°C° 0.1 mm 3 mps 748 mmHg 90%
    05:00 -2°C° 0.1 mm 3 mps 748 mmHg 91%
    06:00 -2°C° 0.1 mm 3 mps 748 mmHg 90%
    07:00 -1°C° 0.1 mm 3 mps 748 mmHg 89%
    08:00 0°C° 0 mm 3 mps 748 mmHg 88%
    09:00 0°C° 0 mm 3 mps 748 mmHg 86%
    10:00 +1°C° 0 mm 3 mps 748 mmHg 84%
    11:00 +2°C° 0 mm 3 mps 748 mmHg 83%
    12:00 +2°C° 0 mm 3 mps 748 mmHg 81%
    13:00 +2°C° 0 mm 3 mps 748 mmHg 79%
    14:00 +3°C° 0 mm 2 mps 749 mmHg 78%
    15:00 +3°C° 0 mm 2 mps 749 mmHg 80%
    16:00 +3°C° 0 mm 2 mps 749 mmHg 83%
    17:00 +2°C° 0 mm 2 mps 749 mmHg 85%
    18:00 +2°C° 0 mm 2 mps 749 mmHg 87%
    19:00 +2°C° 0 mm 2 mps 749 mmHg 89%
    20:00 +1°C° 0 mm 2 mps 748 mmHg 91%
    21:00 +1°C° 0 mm 2 mps 748 mmHg 91%
    22:00 -1°C° 0 mm 2 mps 747 mmHg 92%
    23:00 -1°C° 0 mm 2 mps 747 mmHg 92%

    Tomorrow, 22 March, Friday

    Time Temperature Precipitation Wind Pressure Humidity
    00:00 -1°C° 0 mm 3 mps 746 mmHg 92%
    01:00 0°C° 0 mm 3 mps 745 mmHg 92%
    02:00 0°C° 0 mm 3 mps 745 mmHg 91%
    03:00 0°C° 0.6 mm 3 mps 743 mmHg 90%
    04:00 0°C° 0.6 mm 4 mps 742 mmHg 89%
    05:00 0°C° 0.6 mm 5 mps 741 mmHg 88%
    06:00 +1°C° 1 mm 5 mps 740 mmHg 89%
    07:00 +1°C° 1 mm 5 mps 740 mmHg 89%
    08:00 +1°C° 1 mm 6 mps 739 mmHg 89%
    09:00 +1°C° 0.3 mm 6 mps 740 mmHg 84%
    10:00 -1°C° 0.3 mm 7 mps 740 mmHg 79%
    11:00 -1°C° 0.3 mm 7 mps 741 mmHg 74%
    12:00 -1°C° 0 mm 7 mps 742 mmHg 73%
    13:00 -1°C° 0 mm 7 mps 743 mmHg 71%
    14:00 -2°C° 0 mm 7 mps 743 mmHg 70%
    15:00 -2°C° 0.1 mm 7 mps 744 mmHg 72%
    16:00 -2°C° 0.1 mm 6 mps 744 mmHg 74%
    17:00 -2°C° 0.1 mm 6 mps 744 mmHg 76%
    18:00 -2°C° 0.1 mm 6 mps 745 mmHg 78%
    19:00 -1°C° 0.1 mm 5 mps 745 mmHg 80%
    20:00 -1°C° 0.1 mm 5 mps 746 mmHg 82%
    21:00 -1°C° 0.1 mm 5 mps 746 mmHg 84%
    22:00 -1°C° 0.1 mm 5 mps 747 mmHg 85%
    23:00 -1°C° 0.1 mm 5 mps 747 mmHg 86%

    Day after tomorrow, 23 March, Saturday

    Time Temperature Precipitation Wind Pressure Humidity
    00:00 -1°C° 0 mm 5 mps 748 mmHg 86%
    01:00 -1°C° 0 mm 5 mps 748 mmHg 85%
    02:00 -1°C° 0 mm 5 mps 749 mmHg 85%
    03:00 -1°C° 0 mm 5 mps 750 mmHg 86%
    04:00 -1°C° 0 mm 4 mps 750 mmHg 88%
    05:00 -1°C° 0 mm 4 mps 751 mmHg 89%
    06:00 0°C° 0 mm 3 mps 751 mmHg 90%
    07:00 0°C° 0 mm 3 mps 752 mmHg 90%
    08:00 0°C° 0 mm 3 mps 753 mmHg 91%
    09:00 +2°C° 0 mm 2 mps 753 mmHg 89%
    10:00 +2°C° 0 mm 2 mps 753 mmHg 87%
    11:00 +3°C° 0 mm 1 mps 753 mmHg 85%
    12:00 +4°C° 0 mm 1 mps 753 mmHg 83%
    13:00 +4°C° 0 mm 1 mps 752 mmHg 82%
    14:00 +4°C° 0 mm 1 mps 752 mmHg 80%
    15:00 +4°C° 0 mm 1 mps 752 mmHg 81%
    16:00 +4°C° 0 mm 1 mps 751 mmHg 83%
    17:00 +3°C° 0 mm 1 mps 751 mmHg 84%
    18:00 +2°C° 0 mm 2 mps 751 mmHg 85%
    19:00 +1°C° 0 mm 2 mps 750 mmHg 87%
    20:00 -1°C° 0 mm 3 mps 750 mmHg 88%
    21:00 0°C° 0 mm 3 mps 749 mmHg 87%
    22:00 -1°C° 0 mm 4 mps 749 mmHg 86%
    23:00 -1°C° 0 mm 4 mps 748 mmHg 84%

    24 March, Sunday

    Time Temperature Precipitation Wind Pressure Humidity
    00:00 -1°C° 0.1 mm 4 mps 747 mmHg 84%
    01:00 -1°C° 0.1 mm 4 mps 746 mmHg 84%
    02:00 -1°C° 0.1 mm 4 mps 746 mmHg 84%
    03:00 -1°C° 0.7 mm 4 mps 745 mmHg 86%
    04:00 -1°C° 0.7 mm 4 mps 744 mmHg 88%
    05:00 -1°C° 0.7 mm 4 mps 744 mmHg 90%
    06:00 -1°C° 0 mm 4 mps 743 mmHg 90%
    07:00 0°C° 0 mm 4 mps 743 mmHg 90%
    08:00 +1°C° 0 mm 3 mps 743 mmHg 90%
    09:00 +1°C° 0.1 mm 4 mps 743 mmHg 87%
    10:00 +3°C° 0.1 mm 4 mps 742 mmHg 85%
    11:00 +3°C° 0.1 mm 4 mps 742 mmHg 83%
    12:00 +3°C° 0.1 mm 4 mps 742 mmHg 78%
    13:00 +2°C° 0.1 mm 5 mps 742 mmHg 73%
    14:00 +3°C° 0.1 mm 5 mps 742 mmHg 68%
    15:00 +3°C° 0.1 mm 4 mps 742 mmHg 69%
    16:00 +1°C° 0.1 mm 4 mps 742 mmHg 71%
    17:00 +1°C° 0.1 mm 3 mps 742 mmHg 72%
    18:00 0°C° 0 mm 3 mps 742 mmHg 76%
    19:00 -1°C° 0 mm 3 mps 742 mmHg 79%
    20:00 -2°C° 0 mm 2 mps 743 mmHg 82%
    21:00 -2°C° 0 mm 3 mps 743 mmHg 83%
    22:00 -2°C° 0 mm 3 mps 743 mmHg 84%
    23:00 -2°C° 0 mm 3 mps 743 mmHg 84%

    25 March, Monday

    Time Temperature Precipitation Wind Pressure Humidity
    00:00 -4°C° 0 mm 3 mps 743 mmHg 84%
    01:00 -4°C° 0 mm 3 mps 743 mmHg 85%
    02:00 -4°C° 0 mm 3 mps 743 mmHg 85%
    03:00 -5°C° 0 mm 3 mps 743 mmHg 85%
    04:00 -5°C° 0 mm 3 mps 743 mmHg 86%
    05:00 -5°C° 0 mm 3 mps 743 mmHg 86%
    06:00 -4°C° 0 mm 4 mps 743 mmHg 82%
    07:00 -3°C° 0 mm 4 mps 743 mmHg 78%
    08:00 -3°C° 0 mm 4 mps 743 mmHg 74%
    09:00 -2°C° 0 mm 4 mps 743 mmHg 71%
    10:00 -1°C° 0 mm 4 mps 743 mmHg 68%
    11:00 0°C° 0 mm 3 mps 743 mmHg 65%
    12:00 +1°C° 0 mm 3 mps 743 mmHg 62%
    13:00 +2°C° 0 mm 3 mps 743 mmHg 59%
    14:00 +2°C° 0 mm 3 mps 743 mmHg 57%
    15:00 +3°C° 0 mm 2 mps 743 mmHg 63%
    16:00 +2°C° 0 mm 2 mps 743 mmHg 69%
    17:00 +3°C° 0 mm 1 mps 742 mmHg 75%
    18:00 +2°C° 0 mm 1 mps 742 mmHg 78%
    19:00 +1°C° 0 mm 2 mps 742 mmHg 80%
    20:00 -1°C° 0 mm 2 mps 742 mmHg 83%
    21:00 -1°C° 0.1 mm 3 mps 742 mmHg 82%
    22:00 -1°C° 0.1 mm 3 mps 742 mmHg 81%
    23:00 -1°C° 0.1 mm 3 mps 742 mmHg 80%

    26 March, Tuesday

    Time Temperature Precipitation Wind Pressure Humidity
    00:00 -1°C° 0.1 mm 3 mps 742 mmHg 83%
    01:00 -2°C° 0.1 mm 3 mps 742 mmHg 85%
    02:00 -2°C° 0.1 mm 3 mps 743 mmHg 88%
    03:00 -4°C° 0.5 mm 3 mps 743 mmHg 86%
    04:00 -4°C° 0.5 mm 3 mps 743 mmHg 84%
    05:00 -4°C° 0.5 mm 3 mps 744 mmHg 82%
    06:00 -4°C° 0 mm 3 mps 744 mmHg 79%
    07:00 -4°C° 0 mm 3 mps 744 mmHg 76%
    08:00 -4°C° 0 mm 3 mps 745 mmHg 72%
    09:00 -2°C° 0 mm 3 mps 745 mmHg 66%
    10:00 -1°C° 0 mm 3 mps 745 mmHg 61%
    11:00 +1°C° 0 mm 2 mps 746 mmHg 55%
    12:00 0°C° 0 mm 3 mps 745 mmHg 52%
    13:00 +1°C° 0 mm 3 mps 745 mmHg 49%
    14:00 +1°C° 0 mm 3 mps 745 mmHg 46%
    15:00 +1°C° 0 mm 3 mps 744 mmHg 51%
    16:00 +1°C° 0 mm 2 mps 744 mmHg 57%
    17:00 +1°C° 0 mm 2 mps 743 mmHg 62%
    18:00 -1°C° 0 mm 2 mps 743 mmHg 65%
    19:00 -1°C° 0 mm 3 mps 743 mmHg 68%
    20:00 -2°C° 0 mm 3 mps 742 mmHg 70%
    21:00 -2°C° 0.1 mm 3 mps 742 mmHg 74%
    22:00 -2°C° 0.1 mm 4 mps 741 mmHg 77%
    23:00 -2°C° 0.1 mm 4 mps 740 mmHg 81%
    Show more